Flag for U.S.A. Weather past 2 weeks in Fort Worth, Texas, U.S.A.

Now
84 °F

Clear.


Feels Like: 88 °F
Forecast: 78 / 96 °F
Wind: 10 mph from South

Location: Meacham International Airport

Current Time: Sep 5, 2015 at 1:26:22 AM

Latest Report: Sep 5, 2015 at 12:53 AM


Visibility: 10 mi

Pressure: 29.89 "Hg

Humidity: 61%

Dew point: 69 °F

Location of Fort WorthLocation

Historic Weather in Fort Worth — Graph

°F

Fort Worth temperature yesterday

Maximum temperature yesterday: 96 °F (at 2:53 PM)
Minimum temperature yesterday: 77 °F (at 6:53 AM)
Average temperature yesterday: 87 °F

Past Weeks' High & Low Weather Summary

 TemperatureHumidityPressure
High101 °F (Aug 23, 2:53 PM)90% (Aug 21, 5:53 AM)30.13 "Hg (Aug 21, 5:53 AM)
Low73 °F (Aug 20, 11:53 PM)26% (Aug 30, 4:53 PM)29.79 "Hg (Aug 22, 6:53 PM)
Average86 °F54%29.95 "Hg
* Reported Aug 20 11:53 PM — Sep 4 11:53 PM, Fort Worth, Weather by CustomWeather, © 2015

Note: Actual official high and low records may vary slightly from our data, if they occured in-between our weather recording intervals... More about our weather records

Advertising

Fort Worth weather history for previous 24 hours

 ConditionsComfort  
Time TempWeatherWind HumidityBarometerVisibility
11:53 PM
Fri, Sep 4
87 °FClear.14 mph55%29.89 "Hg10 mi
10:53 PM88 °FClear.9 mph52%29.90 "Hg10 mi
9:53 PM89 °FClear.7 mph48%29.89 "Hg10 mi
8:53 PM90 °FClear.8 mph45%29.86 "Hg10 mi
7:53 PM92 °FSunny.13 mph41%29.85 "Hg10 mi
6:53 PM94 °FSunny.14 mph40%29.84 "Hg10 mi
5:53 PM96 °FPassing clouds.13 mph37%29.84 "Hg10 mi
4:53 PM94 °FPartly sunny.12 mph41%29.84 "Hg10 mi
3:53 PM96 °FPassing clouds.6 mph36%29.86 "Hg10 mi
2:53 PM96 °FScattered clouds.10 mph37%29.88 "Hg10 mi
1:53 PM94 °FScattered clouds.9 mph43%29.90 "Hg10 mi
12:53 PM91 °FPartly sunny.9 mph49%29.92 "Hg10 mi
11:53 AM90 °FPassing clouds.9 mph52%29.93 "Hg10 mi
10:53 AM87 °FSunny.8 mph59%29.93 "Hg10 mi
9:53 AM84 °FSunny.10 mph67%29.93 "Hg10 mi
8:53 AM82 °FSunny.7 mph72%29.93 "Hg10 mi
7:53 AM79 °FClear.6 mph77%29.91 "Hg10 mi
6:53 AM77 °FClear.8 mph82%29.89 "Hg10 mi
5:53 AM78 °FClear.7 mph74%29.88 "Hg10 mi
4:53 AM79 °FClear.9 mph72%29.87 "Hg10 mi
3:53 AM80 °FClear.7 mph69%29.86 "Hg10 mi
2:53 AM82 °FClear.8 mph63%29.86 "Hg10 mi
1:53 AM83 °FClear.8 mph61%29.85 "Hg10 mi
Weather by CustomWeather, © 2015

See weather overviewHow to use our weather pages